NO-116
1 51031U 22002AZ  22160.45382365  .00006692  00000-0  35378-3 0  9995
2 51031  97.4935 228.0287 0014710  93.9647 266.3268 15.15712038 22223
IRIS-A
1 51044U 22002BN  22160.46848000  .00003163  00000-0  18068-3 0  9990
2 51044  97.4825 227.4921 0010922  93.8525 266.3955 15.13389850 22209
DELFI-PQ
1 51074U 22002CU  22160.45310895  .00007035  00000-0  35616-3 0  9998
2 51074  97.5063 228.5792 0015529 121.2878 238.9878 15.17210245 22248
SO-115
1 51080U 22002DA  22160.15675905  .00005149  00000-0  26750-3 0  9991
2 51080  97.5075 228.2333 0015241 121.6594 238.6128 15.16439065 22197
SO-114
1 51081U 22002DB  22160.42127692  .00005211  00000-0  27059-3 0  9990
2 51081  97.5066 228.4781 0015578 120.7920 239.4848 15.16443662 22234
OreSat0
1 52017U 22026K   22160.43504568  .00004101  00000-0  22184-3 0  9999
2 52017  97.5019 160.3847 0025556 304.3391  55.5423 15.14948816 12973
Foresail-1
1 52766U 22057AL  22160.82682366  .00002650  00000-0  15271-3 0  9996
2 52766  97.5210 275.6606 0014127 174.0332 186.1069 15.13190361  2282
